Location: Blankensee
(53.5126°N, 14.3055°E)
Time: 17:47:00
(UTC+00:00)

Cosmos 1025 Rocket - Pass Details

Date: 08 August 2020
Orbit: 594 x 618 km, 82.5° (Epoch: 19 September)

Event Time Altitude Azimuth Distance (km) Brightness Sun altitude
Rises 00:04:32 0° 347° (NNW) 2,857 7.6 -19.4°
Reaches altitude 10° 00:06:46 10° 346° (NNW) 1,947 6.5 -19.3°
Maximum altitude 00:11:03 75° 262° (W) 622 2.9 -19.1°
Enters shadow 00:12:14 46° 188° (S) 801 3.1 -19.1°
